Terminal Aerodrome Forecast
Issued by NWS

Home | Current Version | Previous Version | Graphics & Text | Print | Product List | Glossary Off
Versions: 1 2 3 4 5 6 7 8 9 10 11 12 13 14 15 16 17 18 19 20 21 22 23 24 25 26 27 28 29 30

000
FTUS43 KDDC 171751
TAFHYS
TAF
KHYS 171751Z 1718/1818 09008KT P6SM SKC
     FM180600 11008KT 2SM BR SCT007
     FM180900 11007KT 1/2SM FG VV002
     FM181400 12010KT 3SM BR BKN007=

USA.gov is the U.S. government's official web portal to all federal, state and local government web resources and services.